N2UGS-WX Weather Reports


Display with metric or nautical units.
time (UTC)temp
F
wind
direction
speed
MPH
gust
MPH
rain 1hr
in
rain 24hr
in
rain mn
in
humidity
%
barometer
mb
20260507141902 53 224 2.0 4.0 0.00 0.00 0.00 57 1012.9
20260507140403 51 186 4.0 6.0 0.00 0.00 0.00 57 1012.9
20260507134903 51 260 2.0 6.0 0.00 0.00 0.00 63 1012.9
20260507133901 49 142 2.0 3.0 0.00 0.00 0.00 67 1013.2
20260507132503 46 138 1.0 3.0 0.00 0.00 0.00 67 1013.2
20260507131402 44 44 1.0 4.0 0.00 0.00 0.00 75 1013.2
20260507130002 41 2 0.0 4.0 0.00 0.00 0.00 90 1013.2
20260507124502 41 57 0.0 2.0 0.00 0.00 0.00 97 1013.5
20260507123002 40 61 0.0 4.0 0.00 0.00 0.00 99 1013.2
20260507121403 41 79 2.0 3.0 0.00 0.00 0.00 99 1013.2
20260507115902 41 51 0.0 1.0 0.00 0.00 0.00 99 1013.5
20260507114402 40 359 0.0 0.0 0.00 0.00 0.00 99 1013.5
20260507112902 40 310 0.0 3.0 0.00 0.00 0.00 99 1013.5
20260507111402 40 337 0.0 0.0 0.00 0.00 0.00 99 1013.2
20260507110402 39 344 0.0 0.0 0.00 0.00 0.00 99 1012.9
20260507104902 38 338 0.0 0.0 0.00 0.00 0.00 99 1012.5
20260507103501 38 340 0.0 0.0 0.00 0.00 0.00 99 1012.9
20260507102403 38 242 0.0 0.0 0.00 0.00 0.00 99 1012.5
20260507101402 38 128 0.0 0.0 0.00 0.00 0.00 99 1012.5
20260507095902 36 292 0.0 0.0 0.00 0.00 0.00 98 1012.5
20260507094502 36 11 0.0 0.0 0.00 0.00 0.00 98 1012.5
20260507093002 36 337 0.0 0.0 0.00 0.00 0.00 98 1012.5
20260507091503 36 293 0.0 0.0 0.00 0.00 0.00 98 1012.5
20260507090003 36 344 0.0 0.0 0.00 0.00 0.00 98 1012.5
20260507084902 37 341 0.0 0.0 0.00 0.00 0.00 97 1012.5
20260507083402 37 303 0.0 0.0 0.00 0.00 0.00 97 1012.5
20260507082401 38 349 0.0 0.0 0.00 0.00 0.00 97 1012.5
20260507080902 38 223 0.0 0.0 0.00 0.00 0.00 97 1012.5
20260507075502 38 279 0.0 0.0 0.00 0.00 0.00 97 1012.5
20260507074402 38 317 0.0 0.0 0.00 0.00 0.00 97 1012.5
20260507073401 38 300 0.0 0.0 0.00 0.00 0.00 97 1012.5
20260507072002 37 276 0.0 0.0 0.00 0.00 0.00 96 1012.5
20260507070502 38 2 0.0 0.0 0.00 0.00 0.00 96 1012.5
20260507065402 39 15 0.0 0.0 0.00 0.00 0.00 96 1012.5
20260507064003 39 281 0.0 0.0 0.00 0.00 0.00 95 1012.9
20260507062502 40 272 0.0 0.0 0.00 0.00 0.00 95 1012.9
20260507060902 40 313 0.0 0.0 0.00 0.00 0.00 95 1012.9
20260507055502 41 230 0.0 0.0 0.00 0.00 0.00 95 1012.9
20260507054002 41 342 0.0 0.0 0.00 0.00 0.00 94 1013.2
20260507052402 42 10 0.0 0.0 0.00 0.00 0.00 94 1013.2
20260507051002 42 285 0.0 0.0 0.00 0.00 0.00 93 1013.5
20260507050002 42 32 0.0 0.0 0.00 0.00 0.00 93 1013.5
20260507044501 42 329 0.0 0.0 0.00 0.00 0.00 93 1013.5
20260507043003 43 292 0.0 0.0 0.00 0.00 0.00 93 1013.5
20260507041502 43 284 0.0 2.0 0.00 0.00 0.00 93 1013.5
20260507040002 43 302 0.0 0.0 0.00 0.00 0.00 93 1013.5
20260507035502 43 274 0.0 2.0 0.00 0.00 0.51 93 1013.2
20260507034002 43 235 0.0 1.0 0.00 0.00 0.51 93 1013.5
20260507032503 43 295 0.0 0.0 0.00 0.00 0.51 93 1013.2
20260507031003 43 271 2.0 2.0 0.00 0.00 0.51 93 1013.5
20260507025502 43 190 1.0 1.0 0.00 0.00 0.51 93 1013.5
20260507023902 43 312 0.0 0.0 0.00 0.00 0.51 93 1013.2
20260507022402 43 265 0.0 0.0 0.00 0.00 0.51 93 1013.2
20260507020902 43 302 0.0 0.0 0.00 0.00 0.51 93 1013.5
20260507015402 43 338 0.0 0.0 0.00 0.00 0.51 93 1013.9
20260507013902 43 297 0.0 0.0 0.00 0.00 0.51 92 1013.5
20260507012402 43 282 0.0 0.0 0.00 0.00 0.51 92 1013.5
20260507011002 43 305 0.0 0.0 0.00 0.00 0.51 91 1013.5
20260507005401 43 301 0.0 0.0 0.00 0.00 0.51 91 1013.2
20260507004001 43 285 0.0 0.0 0.00 0.00 0.51 91 1013.2
20260507002403 43 216 0.0 0.0 0.00 0.00 0.51 90 1012.9
20260507000902 43 1 0.0 0.0 0.00 0.00 0.51 90 1012.9
20260506235901 43 53 2.0 3.0 0.00 0.00 0.51 90 1012.5
20260506234502 43 63 0.0 3.0 0.00 0.00 0.51 90 1012.9
20260506232902 43 30 2.0 3.0 0.00 0.00 0.51 91 1012.5
20260506231502 43 320 3.0 5.0 0.00 0.00 0.51 91 1012.5
20260506230401 43 31 4.0 6.0 0.00 0.00 0.51 92 1012.5
20260506224902 43 92 2.0 3.0 0.00 0.00 0.51 93 1012.2
20260506223402 43 334 4.0 5.0 0.00 0.00 0.51 94 1011.9
20260506221902 43 21 5.0 8.0 0.00 0.00 0.51 94 1011.9
20260506220402 43 323 2.0 7.0 0.00 0.00 0.51 95 1011.5
20260506215001 43 348 6.0 9.0 0.00 0.00 0.51 96 1011.5
20260506213902 43 351 4.0 10.0 0.00 0.00 0.51 95 1011.5
20260506212502 43 343 4.0 10.0 0.00 0.00 0.51 95 1011.2
20260506211501 43 300 5.0 11.0 0.00 0.00 0.51 94 1011.2
20260506210003 45 336 7.0 10.0 0.00 0.00 0.51 92 1010.8
20260506204902 47 2 12.0 12.0 0.00 0.00 0.51 88 1010.5
20260506203401 51 327 7.0 7.0 0.00 0.00 0.51 80 1010.5
20260506202002 52 264 6.0 9.0 0.00 0.00 0.51 77 1010.2
20260506200502 52 166 6.0 10.0 0.00 0.00 0.51 76 1010.2
20260506195402 53 328 3.0 9.0 0.00 0.00 0.51 76 1010.2
20260506194402 54 235 6.0 6.0 0.00 0.00 0.51 75 1010.2
20260506193002 52 240 5.0 7.0 0.00 0.00 0.51 81 1010.2
20260506191503 52 313 1.0 4.0 0.00 0.00 0.51 79 1010.2
20260506190003 54 313 0.0 2.0 0.00 0.00 0.51 74 1009.8
20260506184501 55 92 0.0 2.0 0.00 0.00 0.51 75 1009.8
20260506183002 54 94 2.0 3.0 0.00 0.00 0.51 79 1010.2
20260506181502 53 6 0.0 0.0 0.00 0.00 0.51 80 1010.2
20260506180501 53 26 0.0 1.0 0.00 0.00 0.51 79 1010.2
20260506175002 53 67 1.0 3.0 0.00 0.00 0.51 80 1010.2
20260506174001 53 28 0.0 0.0 0.00 0.00 0.51 81 1010.2
20260506172502 53 264 0.0 0.0 0.00 0.00 0.51 83 1010.2
20260506171501 52 235 1.0 2.0 0.00 0.00 0.51 87 1010.2
20260506170003 50 123 0.0 0.0 0.00 0.00 0.51 90 1010.2
20260506164502 49 48 0.0 4.0 0.00 0.00 0.51 91 1010.2
20260506163003 49 43 0.0 3.0 0.00 0.00 0.51 93 1009.8
20260506161502 49 28 0.0 3.0 0.00 0.00 0.51 93 1010.2
20260506160003 48 315 0.0 3.0 0.00 0.00 0.51 93 1010.2
20260506154502 49 12 0.0 0.0 0.00 0.00 0.51 95 1010.2
20260506153004 50 65 0.0 0.0 0.00 0.00 0.51 95 1009.8
20260506152001 50 11 0.0 2.0 0.01 0.00 0.51 97 1009.8
20260506150503 49 353 0.0 3.0 0.01 0.00 0.51 97 1009.8
20260506145502 49 284 0.0 3.0 0.02 0.00 0.51 98 1009.8
20260506143901 49 9 0.0 1.0 0.02 0.00 0.51 99 1009.5